User: anonymous
Location: Unspecified
(0.0000°N, 0.0000°E)
Time: 12:12:45
(UTC+00:00)
Language:

Tiangong 1 - Orbit

View from above orbital plane
View from above orbital plane
View from above satellite
View from above satellite

Ground track
Ground track

The orbit data is extracted from the following two-line orbital elements,

1 37820U 11053A   14265.00532550  .00040550  00000-0  36404-3 0  4133
2 37820 042.7690 088.7255 0007439 283.0691 213.8481 15.67518246171244
Epoch (UTC): 22 September 2014 00:07:40
Eccentricity: 0.0007439
inclination: 42.7690°
perigee height: 361 km
apogee height: 371 km
right ascension of ascending node: 88.7255°
argument of perigee: 283.0691°
revolutions per day: 15.67518246
mean anomaly at epoch: 213.8481°
orbit number at epoch: 17124

The dashed part of the orbit path shows where the satellite is in the earth's shadow,  

DLR